Location: Samoth
(37.3328°N, 88.7876°W)
Time: 11:37:56
(UTC+00:00)

Envisat - Visible Passes

Search period start: 17 September 2021 00:00
Search period end: 27 September 2021 00:00
Orbit: 764 x 766 km, 98.2° (Epoch: 17 September)

Date Brightness Start Highest point End Pass type
(mag) Time Alt. Az. Time Alt. Az. Time Alt. Az.
17 Sep 4.2 10:39:45 10° NNE 10:44:39 46° E 10:49:30 10° S visible
18 Sep 5.6 10:03:53 10° NE 10:07:36 20° E 10:11:17 10° SE visible
19 Sep 3.1 11:04:54 10° NNE 11:10:01 85° ESE 11:15:05 10° SSW visible
20 Sep 4.7 10:28:25 10° NNE 10:33:06 36° E 10:37:44 10° SSE visible
21 Sep 5.9 09:52:59 10° NE 09:55:59 16° E 09:58:57 10° SE visible
22 Sep 3.5 10:53:26 10° NNE 10:58:31 66° ESE 11:03:31 10° S visible
23 Sep 5.1 10:17:11 10° NE 10:21:32 28° E 10:25:50 10° SSE visible
24 Sep 6.1 09:42:34 10° ENE 09:44:21 12° E 09:46:08 10° ESE visible
25 Sep 4.0 10:42:01 10° NNE 10:46:58 50° E 10:51:53 10° S visible
26 Sep 5.5 10:06:03 10° NE 10:09:56 22° E 10:13:48 10° SE visible
